Location: *
(49.3500°N, 12.6000°E)
Time: 07:23:10
(UTC+00:00)

STARLINK-32 - Pass Details

Date: 18 October 2019
Orbit: 548 x 551 km, 53.0° (Epoch: 14 November)

Event Time Altitude Azimuth Distance (km) Brightness Sun altitude
Rises 18:29:08 0° 277° (W) 2,717 8.6 -22.6°
Reaches altitude 10° 18:31:25 10° 283° (WNW) 1,824 7.4 -23.0°
Maximum altitude 18:35:27 50° 359° (N) 709 4.1 -23.6°
Enters shadow 18:35:29 50° 1° (N) 709 4.1 -23.7°
